TimeEDT,TemperatureF,Dew PointF,Humidity,Sea Level PressureIn,VisibilityMPH,Wind Direction,Wind SpeedMPH,Gust SpeedMPH,PrecipitationIn,Events,Conditions,WindDirDegrees,DateUTC
12:53 AM,33.1,28.0,82,30.18,10.0,WNW,5.8,-,N/A,,Mostly Cloudy,300,2013-10-25 04:53:00
1:53 AM,34.0,27.0,75,30.17,10.0,Calm,Calm,-,N/A,,Mostly Cloudy,0,2013-10-25 05:53:00
2:53 AM,33.1,30.0,89,30.19,9.0,West,6.9,-,0.00,,Overcast,280,2013-10-25 06:53:00
2:59 AM,33.8,30.2,87,30.15,2.0,WNW,11.5,-,0.01,Snow,Light Snow,290,2013-10-25 06:59:00
3:06 AM,33.8,30.2,87,30.15,1.0,WNW,10.4,-,0.02,Snow,Light Snow,290,2013-10-25 07:06:00
3:22 AM,33.8,30.2,87,30.15,1.8,West,10.4,-,0.03,Snow,Light Snow,270,2013-10-25 07:22:00
3:29 AM,33.8,30.2,87,30.15,3.0,West,8.1,-,0.03,Snow,Light Snow,280,2013-10-25 07:29:00
3:37 AM,33.8,30.2,87,30.15,5.0,WNW,5.8,-,0.03,Snow,Light Snow,300,2013-10-25 07:37:00
3:49 AM,33.8,30.2,87,30.15,10.0,NW,5.8,-,0.03,,Scattered Clouds,310,2013-10-25 07:49:00
3:53 AM,32.0,30.0,92,30.19,10.0,WNW,5.8,-,0.03,,Scattered Clouds,300,2013-10-25 07:53:00
4:53 AM,30.9,28.9,92,30.19,10.0,West,3.5,-,N/A,,Scattered Clouds,270,2013-10-25 08:53:00
5:09 AM,32.0,28.4,87,30.15,1.8,NNW,9.2,-,0.01,Snow,Light Snow,330,2013-10-25 09:09:00
5:20 AM,33.8,30.2,87,30.14,3.0,NW,4.6,-,0.02,Snow,Light Snow,320,2013-10-25 09:20:00
5:29 AM,32.0,28.4,87,30.15,9.0,WNW,6.9,-,0.02,,Scattered Clouds,300,2013-10-25 09:29:00
5:53 AM,32.0,28.9,88,30.19,10.0,WNW,6.9,-,0.02,,Mostly Cloudy,300,2013-10-25 09:53:00
6:53 AM,30.9,28.9,92,30.20,10.0,West,3.5,-,0.00,,Mostly Cloudy,280,2013-10-25 10:53:00
7:53 AM,32.0,28.9,88,30.19,10.0,SSW,3.5,-,N/A,,Overcast,200,2013-10-25 11:53:00
8:08 AM,32.0,28.4,87,30.15,10.0,South,3.5,-,N/A,,Overcast,190,2013-10-25 12:08:00
8:16 AM,32.0,30.2,93,30.15,10.0,Calm,Calm,-,N/A,,Overcast,0,2013-10-25 12:16:00
8:53 AM,30.9,28.0,89,30.18,10.0,SSW,3.5,-,0.00,,Partly Cloudy,200,2013-10-25 12:53:00
9:53 AM,33.1,30.0,89,30.17,10.0,SW,3.5,-,N/A,,Partly Cloudy,220,2013-10-25 13:53:00
10:53 AM,35.1,32.0,89,30.15,10.0,SSW,8.1,-,N/A,,Clear,200,2013-10-25 14:53:00
11:18 AM,35.6,30.2,81,30.10,10.0,SSW,6.9,-,0.00,Rain,Light Rain,200,2013-10-25 15:18:00
11:41 AM,35.6,30.2,81,30.10,2.5,West,6.9,17.3,0.00,Snow,Light Snow,260,2013-10-25 15:41:00
11:47 AM,35.6,30.2,81,30.09,3.0,WSW,9.2,-,0.00,Snow,Light Snow,250,2013-10-25 15:47:00
11:53 AM,36.0,30.9,82,30.12,9.0,SW,6.9,-,0.00,,Overcast,230,2013-10-25 15:53:00
12:53 PM,39.0,26.1,60,30.09,10.0,WSW,13.8,26.5,0.00,,Clear,250,2013-10-25 16:53:00
1:53 PM,39.0,25.0,57,30.05,10.0,WSW,10.4,-,N/A,,Mostly Cloudy,240,2013-10-25 17:53:00
2:53 PM,39.0,24.1,55,29.99,10.0,SSW,13.8,23.0,N/A,,Overcast,210,2013-10-25 18:53:00
3:53 PM,39.0,26.1,60,29.92,10.0,SSW,12.7,25.3,N/A,,Overcast,210,2013-10-25 19:53:00
4:53 PM,39.9,26.1,58,29.86,10.0,SSW,15.0,20.7,N/A,,Overcast,200,2013-10-25 20:53:00
5:53 PM,39.9,26.1,58,29.79,10.0,South,15.0,24.2,N/A,,Overcast,190,2013-10-25 21:53:00
6:53 PM,39.9,26.1,58,29.71,10.0,South,15.0,24.2,N/A,,Overcast,180,2013-10-25 22:53:00
7:53 PM,39.9,26.1,58,29.70,10.0,SSW,11.5,-,0.00,,Overcast,210,2013-10-25 23:53:00
8:53 PM,41.0,28.0,60,29.64,10.0,SSW,9.2,18.4,N/A,,Overcast,210,2013-10-26 00:53:00
9:53 PM,44.1,32.0,63,29.59,10.0,WSW,12.7,21.9,0.01,Rain,Light Rain,240,2013-10-26 01:53:00
10:53 PM,46.9,33.1,59,29.56,10.0,WSW,18.4,26.5,0.00,,Overcast,250,2013-10-26 02:53:00
11:53 PM,44.1,37.9,79,29.55,7.0,WNW,17.3,25.3,0.03,Rain,Light Rain,290,2013-10-26 03:53:00